When you browse on this site, cookies collect data to enhance your experience and personalize the content and advertising you see.
Visit our Privacy Policy to learn more. By continuing to use the site, you agree to this use of cookies and data.
  • In Portugal
  • List of Countries
  • For 7 days
  • Water Temperature
  • Satellite Maps
  • Weather Map
  • Weather Widgets
  • user-avatar
    Login

    Hourly Weather Leszkiemie

    Today, 25 May, Saturday

    Time Temperature Precipitation Wind Pressure Humidity
    00:00 +10°C° 0 mm 1 mps 734 mmHg 78%
    01:00 +10°C° 0 mm 1 mps 733 mmHg 76%
    02:00 +9°C° 0 mm 1 mps 733 mmHg 75%
    03:00 +9°C° 0 mm 1 mps 733 mmHg 76%
    04:00 +9°C° 0 mm 2 mps 733 mmHg 76%
    05:00 +9°C° 0 mm 2 mps 733 mmHg 77%
    06:00 +11°C° 0 mm 3 mps 733 mmHg 76%
    07:00 +12°C° 0 mm 3 mps 733 mmHg 76%
    08:00 +14°C° 0 mm 4 mps 733 mmHg 75%
    09:00 +15°C° 0 mm 4 mps 733 mmHg 73%
    10:00 +16°C° 0 mm 5 mps 733 mmHg 72%
    11:00 +17°C° 0 mm 5 mps 733 mmHg 71%
    12:00 +17°C° 0.3 mm 5 mps 733 mmHg 70%
    13:00 +17°C° 0.3 mm 6 mps 733 mmHg 70%
    14:00 +17°C° 0.3 mm 6 mps 733 mmHg 69%
    15:00 +16°C° 0 mm 6 mps 733 mmHg 70%
    16:00 +16°C° 0 mm 6 mps 733 mmHg 70%
    17:00 +15°C° 0 mm 6 mps 733 mmHg 70%
    18:00 +13°C° 0 mm 5 mps 733 mmHg 75%
    19:00 +12°C° 0 mm 4 mps 733 mmHg 80%
    20:00 +10°C° 0 mm 3 mps 733 mmHg 84%
    21:00 +9°C° 0 mm 3 mps 733 mmHg 88%
    22:00 +8°C° 0 mm 3 mps 733 mmHg 92%
    23:00 +7°C° 0 mm 2 mps 734 mmHg 96%

    Tomorrow, 26 May, Sunday

    Time Temperature Precipitation Wind Pressure Humidity
    00:00 +6°C° 0 mm 2 mps 734 mmHg 97%
    01:00 +6°C° 0 mm 2 mps 734 mmHg 97%
    02:00 +5°C° 0 mm 2 mps 734 mmHg 98%
    03:00 +5°C° 0 mm 2 mps 733 mmHg 97%
    04:00 +4°C° 0 mm 3 mps 733 mmHg 97%
    05:00 +5°C° 0 mm 3 mps 733 mmHg 97%
    06:00 +7°C° 0 mm 3 mps 733 mmHg 92%
    07:00 +8°C° 0 mm 4 mps 733 mmHg 88%
    08:00 +10°C° 0 mm 5 mps 733 mmHg 83%
    09:00 +12°C° 0 mm 5 mps 733 mmHg 77%
    10:00 +13°C° 0 mm 6 mps 733 mmHg 72%
    11:00 +15°C° 0 mm 6 mps 733 mmHg 66%
    12:00 +15°C° 0.1 mm 6 mps 733 mmHg 68%
    13:00 +15°C° 0.1 mm 6 mps 733 mmHg 69%
    14:00 +15°C° 0.1 mm 6 mps 733 mmHg 71%
    15:00 +14°C° 0.4 mm 6 mps 732 mmHg 75%
    16:00 +13°C° 0.4 mm 5 mps 732 mmHg 79%
    17:00 +13°C° 0.4 mm 5 mps 732 mmHg 83%
    18:00 +12°C° 0 mm 4 mps 732 mmHg 85%
    19:00 +12°C° 0 mm 3 mps 732 mmHg 87%
    20:00 +11°C° 0 mm 3 mps 732 mmHg 89%
    21:00 +11°C° 0 mm 3 mps 732 mmHg 90%
    22:00 +10°C° 0 mm 3 mps 732 mmHg 91%
    23:00 +10°C° 0 mm 3 mps 732 mmHg 92%

    Day after tomorrow, 27 May, Monday

    Time Temperature Precipitation Wind Pressure Humidity
    00:00 +10°C° 0 mm 4 mps 732 mmHg 90%
    01:00 +11°C° 0 mm 4 mps 732 mmHg 89%
    02:00 +11°C° 0 mm 4 mps 732 mmHg 87%
    03:00 +11°C° 0 mm 4 mps 732 mmHg 89%
    04:00 +11°C° 0 mm 4 mps 732 mmHg 90%
    05:00 +11°C° 0 mm 4 mps 732 mmHg 91%
    06:00 +12°C° 0.1 mm 4 mps 731 mmHg 89%
    07:00 +13°C° 0.1 mm 5 mps 731 mmHg 87%
    08:00 +14°C° 0.1 mm 5 mps 731 mmHg 85%
    09:00 +15°C° 0 mm 6 mps 731 mmHg 82%
    10:00 +16°C° 0 mm 7 mps 731 mmHg 79%
    11:00 +16°C° 0 mm 7 mps 731 mmHg 76%
    12:00 +18°C° 0.2 mm 7 mps 731 mmHg 73%
    13:00 +20°C° 0.2 mm 7 mps 731 mmHg 71%
    14:00 +21°C° 0.2 mm 7 mps 731 mmHg 68%
    15:00 +20°C° 1.1 mm 6 mps 731 mmHg 73%
    16:00 +19°C° 1.1 mm 5 mps 731 mmHg 79%
    17:00 +18°C° 1.1 mm 4 mps 731 mmHg 84%
    18:00 +17°C° 0.6 mm 3 mps 731 mmHg 87%
    19:00 +17°C° 0.6 mm 2 mps 731 mmHg 90%
    20:00 +16°C° 0.6 mm 1 mps 731 mmHg 93%
    21:00 +15°C° 0 mm 1 mps 732 mmHg 94%
    22:00 +14°C° 0 mm 1 mps 732 mmHg 95%
    23:00 +13°C° 0 mm 1 mps 732 mmHg 97%

    28 May, Tuesday

    Time Temperature Precipitation Wind Pressure Humidity
    00:00 +13°C° 0 mm 1 mps 732 mmHg 97%
    01:00 +13°C° 0 mm 1 mps 732 mmHg 97%
    02:00 +12°C° 0 mm 1 mps 732 mmHg 97%
    03:00 +12°C° 0 mm 1 mps 732 mmHg 97%
    04:00 +12°C° 0 mm 1 mps 732 mmHg 96%
    05:00 +12°C° 0 mm 2 mps 732 mmHg 96%
    06:00 +13°C° 0.1 mm 2 mps 732 mmHg 95%
    07:00 +13°C° 0.1 mm 2 mps 732 mmHg 94%
    08:00 +14°C° 0.1 mm 2 mps 733 mmHg 93%
    09:00 +13°C° 0.1 mm 3 mps 733 mmHg 92%
    10:00 +14°C° 0.1 mm 3 mps 732 mmHg 91%
    11:00 +16°C° 0.1 mm 3 mps 732 mmHg 91%
    12:00 +14°C° 1 mm 3 mps 732 mmHg 92%
    13:00 +14°C° 1 mm 3 mps 732 mmHg 93%
    14:00 +14°C° 1 mm 4 mps 731 mmHg 95%
    15:00 +13°C° 1.8 mm 4 mps 731 mmHg 95%
    16:00 +12°C° 1.8 mm 4 mps 731 mmHg 96%
    17:00 +12°C° 1.8 mm 4 mps 731 mmHg 96%
    18:00 +11°C° 0 mm 4 mps 731 mmHg 96%
    19:00 +11°C° 0 mm 4 mps 731 mmHg 96%
    20:00 +11°C° 0 mm 4 mps 731 mmHg 95%
    21:00 +10°C° 0 mm 4 mps 731 mmHg 95%
    22:00 +10°C° 0 mm 3 mps 732 mmHg 96%
    23:00 +9°C° 0 mm 3 mps 732 mmHg 96%

    29 May, Wednesday

    Time Temperature Precipitation Wind Pressure Humidity
    00:00 +9°C° 0.1 mm 3 mps 732 mmHg 96%
    01:00 +9°C° 0.1 mm 3 mps 732 mmHg 96%
    02:00 +9°C° 0.1 mm 3 mps 732 mmHg 96%
    03:00 +9°C° 0.3 mm 3 mps 732 mmHg 96%
    04:00 +9°C° 0.3 mm 3 mps 732 mmHg 97%
    05:00 +9°C° 0.3 mm 3 mps 732 mmHg 97%
    06:00 +9°C° 0.2 mm 3 mps 732 mmHg 97%
    07:00 +10°C° 0.2 mm 4 mps 733 mmHg 96%
    08:00 +10°C° 0.2 mm 4 mps 733 mmHg 96%
    09:00 +10°C° 0.6 mm 4 mps 733 mmHg 96%
    10:00 +10°C° 0.6 mm 4 mps 733 mmHg 95%
    11:00 +10°C° 0.6 mm 4 mps 733 mmHg 95%
    12:00 +9°C° 1.3 mm 5 mps 734 mmHg 95%
    13:00 +9°C° 1.3 mm 5 mps 734 mmHg 95%
    14:00 +9°C° 1.3 mm 5 mps 734 mmHg 95%
    15:00 +9°C° 0.8 mm 5 mps 735 mmHg 94%
    16:00 +9°C° 0.8 mm 5 mps 735 mmHg 94%
    17:00 +9°C° 0.8 mm 5 mps 735 mmHg 93%
    18:00 +9°C° 0.1 mm 5 mps 735 mmHg 93%
    19:00 +9°C° 0.1 mm 5 mps 736 mmHg 93%
    20:00 +9°C° 0.1 mm 5 mps 736 mmHg 93%
    21:00 +8°C° 0 mm 5 mps 737 mmHg 90%
    22:00 +7°C° 0 mm 5 mps 737 mmHg 88%
    23:00 +6°C° 0 mm 5 mps 737 mmHg 85%

    30 May, Thursday

    Time Temperature Precipitation Wind Pressure Humidity
    00:00 +5°C° 0 mm 4 mps 738 mmHg 87%
    01:00 +4°C° 0 mm 4 mps 738 mmHg 88%
    02:00 +3°C° 0 mm 4 mps 738 mmHg 89%
    03:00 +3°C° 0 mm 3 mps 739 mmHg 90%
    04:00 +3°C° 0 mm 3 mps 739 mmHg 90%
    05:00 +3°C° 0 mm 3 mps 739 mmHg 90%
    06:00 +5°C° 0 mm 3 mps 740 mmHg 86%
    07:00 +7°C° 0 mm 3 mps 740 mmHg 82%
    08:00 +9°C° 0 mm 2 mps 740 mmHg 77%
    09:00 +12°C° 0 mm 2 mps 741 mmHg 69%
    10:00 +13°C° 0 mm 2 mps 741 mmHg 61%
    11:00 +15°C° 0 mm 2 mps 741 mmHg 53%
    12:00 +16°C° 0 mm 1 mps 741 mmHg 51%
    13:00 +16°C° 0 mm 1 mps 741 mmHg 49%
    14:00 +18°C° 0 mm 1 mps 741 mmHg 47%
    15:00 +18°C° 0 mm 1 mps 741 mmHg 48%
    16:00 +16°C° 0 mm 0 mps 740 mmHg 48%
    17:00 +16°C° 0 mm 0 mps 740 mmHg 49%
    18:00 +15°C° 0 mm 0 mps 740 mmHg 55%
    19:00 +14°C° 0 mm 1 mps 740 mmHg 61%
    20:00 +13°C° 0 mm 1 mps 739 mmHg 67%
    21:00 +12°C° 0 mm 1 mps 739 mmHg 66%
    22:00 +10°C° 0 mm 2 mps 739 mmHg 66%
    23:00 +9°C° 0 mm 2 mps 739 mmHg 65%
    Show more